STARLINK-32747, 62600

Orbit data source: Space-Track

STARLINK-32747, 62600 is a payload satellite owned by SpaceX/Seattle (US) in LEO that was launched on Mon, 13 Jan 2025 UTC via an FALCON 9 launch vehicle from the Air Force Eastern Test Range (AFETR). Payload-class satellites include a variety of spacecraft equipped with specific instruments for various scientific and technological missions. These include communications satellites like Starlink; space stations such as the ISS; scientific satellites like the Hubble; Earth observation satellites from companies like Planet Labs, Umbra, and HawkEye 360; GPS; miniature CubeSats for education and research; and military/defense satellites.

Loading next visibility...
Identifier
62600, 2025-008P
Orbit
LEO
Country
Flag of USUS
Related business
Manufacturer
SpaceX/Seattle
Mission
Operational Commercial Communications
Bus & Motor
STARLINK V2M, Unknown motor
Mass
730 kg wet, ~700 kg dry
Launch date (UTC)
2025-01-13 (8 months ago)
Launch vehicle
FALCON 9
Launch site
Air Force Eastern Test Range (AFETR)
Object type
Payload
Rocket body
Debris
Shape & HBR
Box + 2 Pan, 14.5 m
Radar Cross Section
33.884 m², Large (>1 m²)

Expand to show TLE details & history
Last TLE update: 19 hours ago

TLE from 19 hours ago
0 STARLINK-32747
1 62600U 25008P   25260.17399466  .00030123  00000-0  11002-2 0  9994
2 62600  42.9996 178.1784 0001654 237.7523 122.3168 15.27565364 39027
Epoch: 2025-09-17T04:10Z
TLE epoch observation values (Epoch: 2025-09-17T04:10:33.138Z)
Latitude
-0.00005°
Longitude
119.18653°
Altitude
483.475 km
Speed
7.625 km/s
True Right ascension
11h 52m 42s
True Declination
0° 00' 00"
Sunlit
Object was in daylight at epoch
Visualization orbit readout
Latitude
Unknown
Longitude
Unknown
Altitude
Unknown
Speed
Unknown
Apparent Right ascension
Unknown
Apparent Declination
Unknown
Sunlit
N/A
Visualization observer readout
Local Sidereal Time
15:41:14
Azimuth
Unknown
Elevation
Unknown
Doppler factor
Unknown
Orbital elements
Apogee altitude
486.173 km
Perigee altitude
483.903 km
Semi-major axis
6,863.175 km
Eccentricity
0.00017
Inclination
42.9996°
RAAN
178.1784°
Arg. of periapsis
237.7523°
True anomaly
122.33282°
Mean anomaly
122.3168°
Eccentric anomaly
122.32481°
Mean motion
3.81729 °/min
Orbital period
94.31 mins
BSTAR
0.0011002
Loading maneuver chart data...
Computing Atmospheric mass density...
Loading historical data...
Loading historical data...
Loading historical data...
Loading historical data...
Loading historical data...
Loading historical data...
Loading historical data...

Documentation

Showing up to 5 results
|